<?xml version="1.0" encoding="UTF-8" standalone="no" ?>
<gpx xmlns="http://www.topografix.com/GPX/1/1" xmlns:xsi="http://www.w3.org/2001/XMLSchema-instance" xsi:schemaLocation="http://www.topografix.com/GPX/1/1 http://www.topografix.com/GPX/1/1/gpx.xsd" version="1.1" creator="VisuGPX - https://www.visugpx.com">
  <metadata>
    <name>Orvault_CeintureVerteBugallièreRDCens_10km</name>
    <desc><![CDATA[M1 le 29/04/25 10km gnerando idor:]]></desc>
  </metadata>
  <wpt lat="47.2546" lon="-1.60082">
    <ele>44</ele>
    <name><![CDATA[Orvault, place d'Auteuil]]></name>
  </wpt>
  <wpt lat="47.25442" lon="-1.61582">
    <ele>42</ele>
    <name><![CDATA[Piste Cyclable]]></name>
  </wpt>
  <wpt lat="47.25799" lon="-1.62439">
    <ele>62</ele>
    <name><![CDATA[Rond-point]]></name>
  </wpt>
  <wpt lat="47.26083" lon="-1.62887">
    <ele>57</ele>
    <name><![CDATA[La ceinture verte]]></name>
  </wpt>
  <wpt lat="47.26028" lon="-1.6407">
    <ele>56</ele>
    <name><![CDATA[Avenue de la Bugallière]]></name>
  </wpt>
  <wpt lat="47.26075" lon="-1.64031">
    <ele>54</ele>
    <name><![CDATA[Bifurcation à gauche]]></name>
  </wpt>
  <wpt lat="47.26304" lon="-1.63427">
    <ele>38</ele>
    <name><![CDATA[Chemin herbeux à gauche]]></name>
  </wpt>
  <wpt lat="47.26864" lon="-1.6319">
    <ele>19</ele>
    <name><![CDATA[Pont Marchand]]></name>
  </wpt>
  <wpt lat="47.26729" lon="-1.623">
    <ele>22</ele>
    <name><![CDATA[Pont aux Prêtres]]></name>
  </wpt>
  <wpt lat="47.26419" lon="-1.61525">
    <ele>15</ele>
    <name><![CDATA[Chemin à droite]]></name>
  </wpt>
  <wpt lat="47.26321" lon="-1.60857">
    <ele>17</ele>
    <name><![CDATA[Digue]]></name>
  </wpt>
  <wpt lat="47.26196" lon="-1.60106">
    <ele>11</ele>
    <name><![CDATA[Pont de la Baronnière]]></name>
  </wpt>
  <wpt lat="47.25458" lon="-1.60074">
    <ele>44</ele>
    <name><![CDATA[Orvault, place d'Auteuil]]></name>
  </wpt>
  <trk>
    <name><![CDATA[Orvault_CeintureVerteBugallièreRiveDroiteCens_10.3km]]></name>
    <extensions>
      <line xmlns="http://www.topografix.com/GPX/gpx_style/0/2">
        <color>0000FF</color>
        <width>4</width>
      </line>
    </extensions>
    <trkseg>
      <trkpt lat="47.2546" lon="-1.60082">
        <ele>44</ele>
        <time>2021-12-30T20:11:50.000Z</time>
      </trkpt>
      <trkpt lat="47.25469" lon="-1.60127">
        <ele>46</ele>
        <time>2021-12-30T20:11:50.000Z</time>
      </trkpt>
      <trkpt lat="47.25478" lon="-1.60159">
        <ele>46</ele>
        <time>2021-12-30T20:11:50.000Z</time>
      </trkpt>
      <trkpt lat="47.25487" lon="-1.60192">
        <ele>47</ele>
        <time>2021-12-30T20:11:50.000Z</time>
      </trkpt>
      <trkpt lat="47.25498" lon="-1.60226">
        <ele>48</ele>
        <time>2021-12-30T20:11:50.000Z</time>
      </trkpt>
      <trkpt lat="47.25507" lon="-1.60259">
        <ele>49</ele>
        <time>2021-12-30T20:11:50.000Z</time>
      </trkpt>
      <trkpt lat="47.25511" lon="-1.6028">
        <ele>49</ele>
        <time>2021-12-30T20:11:50.000Z</time>
      </trkpt>
      <trkpt lat="47.25507" lon="-1.60287">
        <ele>49</ele>
        <time>2021-12-30T20:11:57.000Z</time>
      </trkpt>
      <trkpt lat="47.25503" lon="-1.60295">
        <ele>49</ele>
        <time>2021-12-30T20:12:04.000Z</time>
      </trkpt>
      <trkpt lat="47.25503" lon="-1.60306">
        <ele>50</ele>
        <time>2021-12-30T20:12:23.000Z</time>
      </trkpt>
      <trkpt lat="47.25503" lon="-1.60316">
        <ele>50</ele>
        <time>2021-12-30T20:11:50.000Z</time>
      </trkpt>
      <trkpt lat="47.25493" lon="-1.60333">
        <ele>50</ele>
        <time>2021-12-30T20:12:07.000Z</time>
      </trkpt>
      <trkpt lat="47.25483" lon="-1.60348">
        <ele>50</ele>
        <time>2021-12-30T20:11:50.000Z</time>
      </trkpt>
      <trkpt lat="47.25475" lon="-1.60361">
        <ele>50</ele>
        <time>2021-12-30T20:12:03.000Z</time>
      </trkpt>
      <trkpt lat="47.25467" lon="-1.60377">
        <ele>51</ele>
        <time>2021-12-30T20:11:50.000Z</time>
      </trkpt>
      <trkpt lat="47.25459" lon="-1.60395">
        <ele>51</ele>
        <time>2021-12-30T20:12:06.000Z</time>
      </trkpt>
      <trkpt lat="47.25447" lon="-1.60418">
        <ele>51</ele>
        <time>2021-12-30T20:12:29.000Z</time>
      </trkpt>
      <trkpt lat="47.2545" lon="-1.60425">
        <ele>51</ele>
        <time>2021-12-30T20:12:35.000Z</time>
      </trkpt>
      <trkpt lat="47.2545" lon="-1.60445">
        <ele>51</ele>
        <time>2021-12-30T20:12:51.000Z</time>
      </trkpt>
      <trkpt lat="47.25442" lon="-1.60459">
        <ele>51</ele>
        <time>2021-12-30T20:11:50.000Z</time>
      </trkpt>
      <trkpt lat="47.25459" lon="-1.60497">
        <ele>51</ele>
        <time>2021-12-30T20:11:50.000Z</time>
      </trkpt>
      <trkpt lat="47.2547" lon="-1.60521">
        <ele>50</ele>
        <time>2021-12-30T20:11:50.000Z</time>
      </trkpt>
      <trkpt lat="47.25482" lon="-1.60551">
        <ele>50</ele>
        <time>2021-12-30T20:11:50.000Z</time>
      </trkpt>
      <trkpt lat="47.25494" lon="-1.60579">
        <ele>49</ele>
        <time>2021-12-30T20:11:50.000Z</time>
      </trkpt>
      <trkpt lat="47.25507" lon="-1.60611">
        <ele>49</ele>
        <time>2021-12-30T20:11:50.000Z</time>
      </trkpt>
      <trkpt lat="47.25518" lon="-1.60639">
        <ele>49</ele>
        <time>2021-12-30T20:11:50.000Z</time>
      </trkpt>
      <trkpt lat="47.25531" lon="-1.60667">
        <ele>48</ele>
        <time>2021-12-30T20:11:50.000Z</time>
      </trkpt>
      <trkpt lat="47.25545" lon="-1.60689">
        <ele>47</ele>
        <time>2021-12-30T20:11:50.000Z</time>
      </trkpt>
      <trkpt lat="47.25562" lon="-1.60704">
        <ele>46</ele>
        <time>2021-12-30T20:11:50.000Z</time>
      </trkpt>
      <trkpt lat="47.25586" lon="-1.6072">
        <ele>44</ele>
        <time>2021-12-30T20:11:50.000Z</time>
      </trkpt>
      <trkpt lat="47.25607" lon="-1.60733">
        <ele>43</ele>
        <time>2021-12-30T20:11:50.000Z</time>
      </trkpt>
      <trkpt lat="47.25613" lon="-1.60752">
        <ele>43</ele>
        <time>2021-12-30T20:12:06.000Z</time>
      </trkpt>
      <trkpt lat="47.25628" lon="-1.60754">
        <ele>43</ele>
        <time>2021-12-30T20:11:50.000Z</time>
      </trkpt>
      <trkpt lat="47.25633" lon="-1.60781">
        <ele>43</ele>
        <time>2021-12-30T20:11:50.000Z</time>
      </trkpt>
      <trkpt lat="47.25636" lon="-1.60814">
        <ele>42</ele>
        <time>2021-12-30T20:11:50.000Z</time>
      </trkpt>
      <trkpt lat="47.25636" lon="-1.60846">
        <ele>42</ele>
        <time>2021-12-30T20:11:50.000Z</time>
      </trkpt>
      <trkpt lat="47.25633" lon="-1.6088">
        <ele>42</ele>
        <time>2021-12-30T20:11:50.000Z</time>
      </trkpt>
      <trkpt lat="47.25629" lon="-1.60914">
        <ele>41</ele>
        <time>2021-12-30T20:11:50.000Z</time>
      </trkpt>
      <trkpt lat="47.25623" lon="-1.60943">
        <ele>41</ele>
        <time>2021-12-30T20:11:50.000Z</time>
      </trkpt>
      <trkpt lat="47.25613" lon="-1.60976">
        <ele>41</ele>
        <time>2021-12-30T20:11:50.000Z</time>
      </trkpt>
      <trkpt lat="47.25601" lon="-1.61007">
        <ele>41</ele>
        <time>2021-12-30T20:11:50.000Z</time>
      </trkpt>
      <trkpt lat="47.25587" lon="-1.61035">
        <ele>41</ele>
        <time>2021-12-30T20:11:50.000Z</time>
      </trkpt>
      <trkpt lat="47.25574" lon="-1.61062">
        <ele>40</ele>
        <time>2021-12-30T20:11:50.000Z</time>
      </trkpt>
      <trkpt lat="47.25561" lon="-1.61088">
        <ele>40</ele>
        <time>2021-12-30T20:11:50.000Z</time>
      </trkpt>
      <trkpt lat="47.25548" lon="-1.61114">
        <ele>39</ele>
        <time>2021-12-30T20:11:50.000Z</time>
      </trkpt>
      <trkpt lat="47.25535" lon="-1.61146">
        <ele>38</ele>
        <time>2021-12-30T20:11:50.000Z</time>
      </trkpt>
      <trkpt lat="47.25524" lon="-1.61175">
        <ele>37</ele>
        <time>2021-12-30T20:11:50.000Z</time>
      </trkpt>
      <trkpt lat="47.25515" lon="-1.61206">
        <ele>37</ele>
        <time>2021-12-30T20:11:50.000Z</time>
      </trkpt>
      <trkpt lat="47.25507" lon="-1.61238">
        <ele>37</ele>
        <time>2021-12-30T20:11:50.000Z</time>
      </trkpt>
      <trkpt lat="47.25508" lon="-1.61273">
        <ele>38</ele>
        <time>2021-12-30T20:11:50.000Z</time>
      </trkpt>
      <trkpt lat="47.25502" lon="-1.61306">
        <ele>39</ele>
        <time>2021-12-30T20:11:50.000Z</time>
      </trkpt>
      <trkpt lat="47.25501" lon="-1.6134">
        <ele>40</ele>
        <time>2021-12-30T20:11:50.000Z</time>
      </trkpt>
      <trkpt lat="47.25512" lon="-1.6137">
        <ele>40</ele>
        <time>2021-12-30T20:11:50.000Z</time>
      </trkpt>
      <trkpt lat="47.25507" lon="-1.61403">
        <ele>40</ele>
        <time>2021-12-30T20:11:50.000Z</time>
      </trkpt>
      <trkpt lat="47.25501" lon="-1.61433">
        <ele>40</ele>
        <time>2021-12-30T20:11:50.000Z</time>
      </trkpt>
      <trkpt lat="47.25491" lon="-1.61462">
        <ele>39</ele>
        <time>2021-12-30T20:11:50.000Z</time>
      </trkpt>
      <trkpt lat="47.25478" lon="-1.61496">
        <ele>41</ele>
        <time>2021-12-30T20:11:50.000Z</time>
      </trkpt>
      <trkpt lat="47.25471" lon="-1.61512">
        <ele>41</ele>
        <time>2021-12-30T20:12:05.000Z</time>
      </trkpt>
      <trkpt lat="47.25463" lon="-1.61522">
        <ele>41</ele>
        <time>2021-12-30T20:11:50.000Z</time>
      </trkpt>
      <trkpt lat="47.2545" lon="-1.61537">
        <ele>42</ele>
        <time>2021-12-30T20:12:19.000Z</time>
      </trkpt>
      <trkpt lat="47.25447" lon="-1.61548">
        <ele>42</ele>
        <time>2021-12-30T20:12:29.000Z</time>
      </trkpt>
      <trkpt lat="47.25436" lon="-1.61559">
        <ele>42</ele>
        <time>2021-12-30T20:12:44.000Z</time>
      </trkpt>
      <trkpt lat="47.25442" lon="-1.61582">
        <ele>42</ele>
        <time>2021-12-30T20:11:50.000Z</time>
      </trkpt>
      <trkpt lat="47.2545" lon="-1.61614">
        <ele>42</ele>
        <time>2021-12-30T20:11:50.000Z</time>
      </trkpt>
      <trkpt lat="47.25458" lon="-1.61644">
        <ele>41</ele>
        <time>2021-12-30T20:11:50.000Z</time>
      </trkpt>
      <trkpt lat="47.25466" lon="-1.61675">
        <ele>42</ele>
        <time>2021-12-30T20:11:50.000Z</time>
      </trkpt>
      <trkpt lat="47.25475" lon="-1.6171">
        <ele>42</ele>
        <time>2021-12-30T20:11:50.000Z</time>
      </trkpt>
      <trkpt lat="47.25484" lon="-1.6174">
        <ele>43</ele>
        <time>2021-12-30T20:11:50.000Z</time>
      </trkpt>
      <trkpt lat="47.25495" lon="-1.61768">
        <ele>43</ele>
        <time>2021-12-30T20:11:50.000Z</time>
      </trkpt>
      <trkpt lat="47.25508" lon="-1.61795">
        <ele>44</ele>
        <time>2021-12-30T20:11:50.000Z</time>
      </trkpt>
      <trkpt lat="47.25522" lon="-1.61825">
        <ele>45</ele>
        <time>2021-12-30T20:11:50.000Z</time>
      </trkpt>
      <trkpt lat="47.25535" lon="-1.61852">
        <ele>45</ele>
        <time>2021-12-30T20:11:50.000Z</time>
      </trkpt>
      <trkpt lat="47.25549" lon="-1.6188">
        <ele>47</ele>
        <time>2021-12-30T20:11:50.000Z</time>
      </trkpt>
      <trkpt lat="47.25563" lon="-1.61904">
        <ele>48</ele>
        <time>2021-12-30T20:11:50.000Z</time>
      </trkpt>
      <trkpt lat="47.25578" lon="-1.61931">
        <ele>48</ele>
        <time>2021-12-30T20:11:50.000Z</time>
      </trkpt>
      <trkpt lat="47.25587" lon="-1.61959">
        <ele>49</ele>
        <time>2021-12-30T20:11:50.000Z</time>
      </trkpt>
      <trkpt lat="47.25582" lon="-1.61991">
        <ele>50</ele>
        <time>2021-12-30T20:11:50.000Z</time>
      </trkpt>
      <trkpt lat="47.2558" lon="-1.62009">
        <ele>50</ele>
        <time>2021-12-30T20:12:04.000Z</time>
      </trkpt>
      <trkpt lat="47.25586" lon="-1.6203">
        <ele>51</ele>
        <time>2021-12-30T20:11:50.000Z</time>
      </trkpt>
      <trkpt lat="47.25595" lon="-1.62044">
        <ele>51</ele>
        <time>2021-12-30T20:12:05.000Z</time>
      </trkpt>
      <trkpt lat="47.25608" lon="-1.62051">
        <ele>51</ele>
        <time>2021-12-30T20:11:50.000Z</time>
      </trkpt>
      <trkpt lat="47.25629" lon="-1.62054">
        <ele>52</ele>
        <time>2021-12-30T20:11:50.000Z</time>
      </trkpt>
      <trkpt lat="47.25649" lon="-1.6206">
        <ele>52</ele>
        <time>2021-12-30T20:11:50.000Z</time>
      </trkpt>
      <trkpt lat="47.25666" lon="-1.62088">
        <ele>53</ele>
        <time>2021-12-30T20:11:50.000Z</time>
      </trkpt>
      <trkpt lat="47.25678" lon="-1.62115">
        <ele>54</ele>
        <time>2021-12-30T20:11:50.000Z</time>
      </trkpt>
      <trkpt lat="47.25692" lon="-1.62144">
        <ele>56</ele>
        <time>2021-12-30T20:11:50.000Z</time>
      </trkpt>
      <trkpt lat="47.25706" lon="-1.62171">
        <ele>53</ele>
        <time>2021-12-30T20:11:50.000Z</time>
      </trkpt>
      <trkpt lat="47.25719" lon="-1.62198">
        <ele>52</ele>
        <time>2021-12-30T20:11:50.000Z</time>
      </trkpt>
      <trkpt lat="47.25733" lon="-1.62226">
        <ele>59</ele>
        <time>2021-12-30T20:11:50.000Z</time>
      </trkpt>
      <trkpt lat="47.25747" lon="-1.62252">
        <ele>59</ele>
        <time>2021-12-30T20:11:50.000Z</time>
      </trkpt>
      <trkpt lat="47.25756" lon="-1.62279">
        <ele>59</ele>
        <time>2021-12-30T20:11:50.000Z</time>
      </trkpt>
      <trkpt lat="47.25757" lon="-1.62301">
        <ele>60</ele>
        <time>2021-12-30T20:12:17.000Z</time>
      </trkpt>
      <trkpt lat="47.25762" lon="-1.62315">
        <ele>60</ele>
        <time>2021-12-30T20:11:50.000Z</time>
      </trkpt>
      <trkpt lat="47.25778" lon="-1.62331">
        <ele>60</ele>
        <time>2021-12-30T20:11:50.000Z</time>
      </trkpt>
      <trkpt lat="47.25788" lon="-1.62349">
        <ele>61</ele>
        <time>2021-12-30T20:12:18.000Z</time>
      </trkpt>
      <trkpt lat="47.25793" lon="-1.62367">
        <ele>62</ele>
        <time>2021-12-30T20:11:50.000Z</time>
      </trkpt>
      <trkpt lat="47.25797" lon="-1.62379">
        <ele>62</ele>
        <time>2021-12-30T20:12:01.000Z</time>
      </trkpt>
      <trkpt lat="47.25801" lon="-1.62395">
        <ele>62</ele>
        <time>2021-12-30T20:11:50.000Z</time>
      </trkpt>
      <trkpt lat="47.25802" lon="-1.62412">
        <ele>62</ele>
        <time>2021-12-30T20:12:03.000Z</time>
      </trkpt>
      <trkpt lat="47.25799" lon="-1.62439">
        <ele>62</ele>
        <time>2021-12-30T20:11:50.000Z</time>
      </trkpt>
      <trkpt lat="47.25814" lon="-1.62454">
        <ele>62</ele>
        <time>2021-12-30T20:11:50.000Z</time>
      </trkpt>
      <trkpt lat="47.2582" lon="-1.62462">
        <ele>62</ele>
        <time>2021-12-30T20:11:59.000Z</time>
      </trkpt>
      <trkpt lat="47.25823" lon="-1.62481">
        <ele>62</ele>
        <time>2021-12-30T20:11:50.000Z</time>
      </trkpt>
      <trkpt lat="47.2583" lon="-1.62509">
        <ele>62</ele>
        <time>2021-12-30T20:11:50.000Z</time>
      </trkpt>
      <trkpt lat="47.2584" lon="-1.62536">
        <ele>62</ele>
        <time>2021-12-30T20:11:50.000Z</time>
      </trkpt>
      <trkpt lat="47.25848" lon="-1.62562">
        <ele>63</ele>
        <time>2021-12-30T20:12:23.000Z</time>
      </trkpt>
      <trkpt lat="47.25853" lon="-1.62571">
        <ele>62</ele>
        <time>2021-12-30T20:11:50.000Z</time>
      </trkpt>
      <trkpt lat="47.25869" lon="-1.62578">
        <ele>58</ele>
        <time>2021-12-30T20:12:09.000Z</time>
      </trkpt>
      <trkpt lat="47.2588" lon="-1.62583">
        <ele>58</ele>
        <time>2021-12-30T20:11:50.000Z</time>
      </trkpt>
      <trkpt lat="47.25902" lon="-1.62593">
        <ele>63</ele>
        <time>2021-12-30T20:11:50.000Z</time>
      </trkpt>
      <trkpt lat="47.25915" lon="-1.62589">
        <ele>63</ele>
        <time>2021-12-30T20:12:05.000Z</time>
      </trkpt>
      <trkpt lat="47.25926" lon="-1.6258">
        <ele>63</ele>
        <time>2021-12-30T20:11:50.000Z</time>
      </trkpt>
      <trkpt lat="47.25946" lon="-1.62563">
        <ele>63</ele>
        <time>2021-12-30T20:11:50.000Z</time>
      </trkpt>
      <trkpt lat="47.25967" lon="-1.62545">
        <ele>63</ele>
        <time>2021-12-30T20:11:50.000Z</time>
      </trkpt>
      <trkpt lat="47.25987" lon="-1.62527">
        <ele>63</ele>
        <time>2021-12-30T20:11:50.000Z</time>
      </trkpt>
      <trkpt lat="47.26005" lon="-1.62512">
        <ele>63</ele>
        <time>2021-12-30T20:11:50.000Z</time>
      </trkpt>
      <trkpt lat="47.26025" lon="-1.62493">
        <ele>63</ele>
        <time>2021-12-30T20:11:50.000Z</time>
      </trkpt>
      <trkpt lat="47.26045" lon="-1.62475">
        <ele>63</ele>
        <time>2021-12-30T20:11:50.000Z</time>
      </trkpt>
      <trkpt lat="47.26064" lon="-1.62455">
        <ele>62</ele>
        <time>2021-12-30T20:11:50.000Z</time>
      </trkpt>
      <trkpt lat="47.26082" lon="-1.62435">
        <ele>62</ele>
        <time>2021-12-30T20:11:50.000Z</time>
      </trkpt>
      <trkpt lat="47.26101" lon="-1.62454">
        <ele>62</ele>
        <time>2021-12-30T20:11:50.000Z</time>
      </trkpt>
      <trkpt lat="47.26103" lon="-1.62466">
        <ele>62</ele>
        <time>2021-12-30T20:12:00.000Z</time>
      </trkpt>
      <trkpt lat="47.26104" lon="-1.62488">
        <ele>62</ele>
        <time>2021-12-30T20:11:50.000Z</time>
      </trkpt>
      <trkpt lat="47.26102" lon="-1.62521">
        <ele>62</ele>
        <time>2021-12-30T20:11:50.000Z</time>
      </trkpt>
      <trkpt lat="47.26101" lon="-1.62555">
        <ele>62</ele>
        <time>2021-12-30T20:11:50.000Z</time>
      </trkpt>
      <trkpt lat="47.26099" lon="-1.62588">
        <ele>61</ele>
        <time>2021-12-30T20:11:50.000Z</time>
      </trkpt>
      <trkpt lat="47.26097" lon="-1.62622">
        <ele>61</ele>
        <time>2021-12-30T20:11:50.000Z</time>
      </trkpt>
      <trkpt lat="47.26097" lon="-1.62642">
        <ele>61</ele>
        <time>2021-12-30T20:12:05.000Z</time>
      </trkpt>
      <trkpt lat="47.26094" lon="-1.62657">
        <ele>61</ele>
        <time>2021-12-30T20:12:17.000Z</time>
      </trkpt>
      <trkpt lat="47.2609" lon="-1.62671">
        <ele>60</ele>
        <time>2021-12-30T20:12:29.000Z</time>
      </trkpt>
      <trkpt lat="47.26093" lon="-1.62682">
        <ele>60</ele>
        <time>2021-12-30T20:11:50.000Z</time>
      </trkpt>
      <trkpt lat="47.26091" lon="-1.6272">
        <ele>60</ele>
        <time>2021-12-30T20:11:50.000Z</time>
      </trkpt>
      <trkpt lat="47.26089" lon="-1.62753">
        <ele>59</ele>
        <time>2021-12-30T20:11:50.000Z</time>
      </trkpt>
      <trkpt lat="47.26087" lon="-1.62787">
        <ele>59</ele>
        <time>2021-12-30T20:11:50.000Z</time>
      </trkpt>
      <trkpt lat="47.26086" lon="-1.62818">
        <ele>58</ele>
        <time>2021-12-30T20:11:50.000Z</time>
      </trkpt>
      <trkpt lat="47.26084" lon="-1.62854">
        <ele>58</ele>
        <time>2021-12-30T20:11:50.000Z</time>
      </trkpt>
      <trkpt lat="47.26083" lon="-1.62887">
        <ele>57</ele>
        <time>2021-12-30T20:11:50.000Z</time>
      </trkpt>
      <trkpt lat="47.26058" lon="-1.6288">
        <ele>58</ele>
        <time>2021-12-30T20:11:50.000Z</time>
      </trkpt>
      <trkpt lat="47.26037" lon="-1.6287">
        <ele>59</ele>
        <time>2021-12-30T20:11:50.000Z</time>
      </trkpt>
      <trkpt lat="47.26014" lon="-1.6286">
        <ele>60</ele>
        <time>2021-12-30T20:11:50.000Z</time>
      </trkpt>
      <trkpt lat="47.25994" lon="-1.62851">
        <ele>60</ele>
        <time>2021-12-30T20:11:50.000Z</time>
      </trkpt>
      <trkpt lat="47.2598" lon="-1.62846">
        <ele>61</ele>
        <time>2021-12-30T20:12:17.000Z</time>
      </trkpt>
      <trkpt lat="47.25971" lon="-1.62843">
        <ele>61</ele>
        <time>2021-12-30T20:11:50.000Z</time>
      </trkpt>
      <trkpt lat="47.25958" lon="-1.62837">
        <ele>62</ele>
        <time>2021-12-30T20:12:15.000Z</time>
      </trkpt>
      <trkpt lat="47.25947" lon="-1.62834">
        <ele>62</ele>
        <time>2021-12-30T20:11:50.000Z</time>
      </trkpt>
      <trkpt lat="47.25927" lon="-1.62817">
        <ele>63</ele>
        <time>2021-12-30T20:11:50.000Z</time>
      </trkpt>
      <trkpt lat="47.25923" lon="-1.62803">
        <ele>63</ele>
        <time>2021-12-30T20:12:02.000Z</time>
      </trkpt>
      <trkpt lat="47.25913" lon="-1.62797">
        <ele>63</ele>
        <time>2021-12-30T20:11:50.000Z</time>
      </trkpt>
      <trkpt lat="47.25899" lon="-1.62798">
        <ele>63</ele>
        <time>2021-12-30T20:12:07.000Z</time>
      </trkpt>
      <trkpt lat="47.25885" lon="-1.62802">
        <ele>63</ele>
        <time>2021-12-30T20:11:50.000Z</time>
      </trkpt>
      <trkpt lat="47.25873" lon="-1.62803">
        <ele>63</ele>
        <time>2021-12-30T20:12:04.000Z</time>
      </trkpt>
      <trkpt lat="47.25868" lon="-1.62814">
        <ele>63</ele>
        <time>2021-12-30T20:12:14.000Z</time>
      </trkpt>
      <trkpt lat="47.25866" lon="-1.62825">
        <ele>62</ele>
        <time>2021-12-30T20:11:50.000Z</time>
      </trkpt>
      <trkpt lat="47.25861" lon="-1.62856">
        <ele>62</ele>
        <time>2021-12-30T20:11:50.000Z</time>
      </trkpt>
      <trkpt lat="47.25856" lon="-1.6289">
        <ele>62</ele>
        <time>2021-12-30T20:11:50.000Z</time>
      </trkpt>
      <trkpt lat="47.2585" lon="-1.62925">
        <ele>62</ele>
        <time>2021-12-30T20:11:50.000Z</time>
      </trkpt>
      <trkpt lat="47.25846" lon="-1.62955">
        <ele>61</ele>
        <time>2021-12-30T20:11:50.000Z</time>
      </trkpt>
      <trkpt lat="47.2584" lon="-1.62988">
        <ele>61</ele>
        <time>2021-12-30T20:11:50.000Z</time>
      </trkpt>
      <trkpt lat="47.25834" lon="-1.63021">
        <ele>60</ele>
        <time>2021-12-30T20:11:50.000Z</time>
      </trkpt>
      <trkpt lat="47.25827" lon="-1.63055">
        <ele>59</ele>
        <time>2021-12-30T20:11:50.000Z</time>
      </trkpt>
      <trkpt lat="47.25822" lon="-1.63087">
        <ele>59</ele>
        <time>2021-12-30T20:11:50.000Z</time>
      </trkpt>
      <trkpt lat="47.25817" lon="-1.6312">
        <ele>59</ele>
        <time>2021-12-30T20:11:50.000Z</time>
      </trkpt>
      <trkpt lat="47.2581" lon="-1.63149">
        <ele>58</ele>
        <time>2021-12-30T20:11:50.000Z</time>
      </trkpt>
      <trkpt lat="47.258" lon="-1.63181">
        <ele>57</ele>
        <time>2021-12-30T20:11:50.000Z</time>
      </trkpt>
      <trkpt lat="47.258" lon="-1.63215">
        <ele>56</ele>
        <time>2021-12-30T20:11:50.000Z</time>
      </trkpt>
      <trkpt lat="47.25797" lon="-1.63248">
        <ele>56</ele>
        <time>2021-12-30T20:11:50.000Z</time>
      </trkpt>
      <trkpt lat="47.25791" lon="-1.6328">
        <ele>56</ele>
        <time>2021-12-30T20:11:50.000Z</time>
      </trkpt>
      <trkpt lat="47.25786" lon="-1.63309">
        <ele>56</ele>
        <time>2021-12-30T20:11:50.000Z</time>
      </trkpt>
      <trkpt lat="47.25788" lon="-1.63326">
        <ele>56</ele>
        <time>2021-12-30T20:12:03.000Z</time>
      </trkpt>
      <trkpt lat="47.25786" lon="-1.63343">
        <ele>55</ele>
        <time>2021-12-30T20:11:50.000Z</time>
      </trkpt>
      <trkpt lat="47.25785" lon="-1.63379">
        <ele>55</ele>
        <time>2021-12-30T20:11:50.000Z</time>
      </trkpt>
      <trkpt lat="47.25781" lon="-1.63411">
        <ele>55</ele>
        <time>2021-12-30T20:11:50.000Z</time>
      </trkpt>
      <trkpt lat="47.25777" lon="-1.63449">
        <ele>55</ele>
        <time>2021-12-30T20:11:50.000Z</time>
      </trkpt>
      <trkpt lat="47.25777" lon="-1.63462">
        <ele>54</ele>
        <time>2021-12-30T20:12:00.000Z</time>
      </trkpt>
      <trkpt lat="47.25779" lon="-1.63476">
        <ele>54</ele>
        <time>2021-12-30T20:12:11.000Z</time>
      </trkpt>
      <trkpt lat="47.25791" lon="-1.6349">
        <ele>53</ele>
        <time>2021-12-30T20:11:50.000Z</time>
      </trkpt>
      <trkpt lat="47.25787" lon="-1.63511">
        <ele>53</ele>
        <time>2021-12-30T20:11:50.000Z</time>
      </trkpt>
      <trkpt lat="47.2577" lon="-1.63537">
        <ele>55</ele>
        <time>2021-12-30T20:11:50.000Z</time>
      </trkpt>
      <trkpt lat="47.25759" lon="-1.63567">
        <ele>55</ele>
        <time>2021-12-30T20:11:50.000Z</time>
      </trkpt>
      <trkpt lat="47.25751" lon="-1.63598">
        <ele>55</ele>
        <time>2021-12-30T20:11:50.000Z</time>
      </trkpt>
      <trkpt lat="47.25752" lon="-1.63617">
        <ele>55</ele>
        <time>2021-12-30T20:12:05.000Z</time>
      </trkpt>
      <trkpt lat="47.25755" lon="-1.63631">
        <ele>54</ele>
        <time>2021-12-30T20:11:50.000Z</time>
      </trkpt>
      <trkpt lat="47.25753" lon="-1.63646">
        <ele>54</ele>
        <time>2021-12-30T20:12:01.000Z</time>
      </trkpt>
      <trkpt lat="47.25758" lon="-1.63665">
        <ele>53</ele>
        <time>2021-12-30T20:11:50.000Z</time>
      </trkpt>
      <trkpt lat="47.25769" lon="-1.63695">
        <ele>53</ele>
        <time>2021-12-30T20:11:50.000Z</time>
      </trkpt>
      <trkpt lat="47.25782" lon="-1.63723">
        <ele>52</ele>
        <time>2021-12-30T20:11:50.000Z</time>
      </trkpt>
      <trkpt lat="47.25789" lon="-1.63737">
        <ele>51</ele>
        <time>2021-12-30T20:12:03.000Z</time>
      </trkpt>
      <trkpt lat="47.2579" lon="-1.63755">
        <ele>52</ele>
        <time>2021-12-30T20:11:50.000Z</time>
      </trkpt>
      <trkpt lat="47.25789" lon="-1.63768">
        <ele>52</ele>
        <time>2021-12-30T20:12:00.000Z</time>
      </trkpt>
      <trkpt lat="47.25778" lon="-1.63781">
        <ele>53</ele>
        <time>2021-12-30T20:11:50.000Z</time>
      </trkpt>
      <trkpt lat="47.25773" lon="-1.63794">
        <ele>53</ele>
        <time>2021-12-30T20:12:02.000Z</time>
      </trkpt>
      <trkpt lat="47.25769" lon="-1.63814">
        <ele>54</ele>
        <time>2021-12-30T20:11:50.000Z</time>
      </trkpt>
      <trkpt lat="47.25783" lon="-1.63829">
        <ele>53</ele>
        <time>2021-12-30T20:11:50.000Z</time>
      </trkpt>
      <trkpt lat="47.25799" lon="-1.63849">
        <ele>53</ele>
        <time>2021-12-30T20:11:50.000Z</time>
      </trkpt>
      <trkpt lat="47.2581" lon="-1.6386">
        <ele>53</ele>
        <time>2021-12-30T20:12:05.000Z</time>
      </trkpt>
      <trkpt lat="47.2582" lon="-1.63871">
        <ele>53</ele>
        <time>2021-12-30T20:11:50.000Z</time>
      </trkpt>
      <trkpt lat="47.25835" lon="-1.63891">
        <ele>53</ele>
        <time>2021-12-30T20:11:50.000Z</time>
      </trkpt>
      <trkpt lat="47.25854" lon="-1.63915">
        <ele>52</ele>
        <time>2021-12-30T20:11:50.000Z</time>
      </trkpt>
      <trkpt lat="47.25872" lon="-1.63935">
        <ele>53</ele>
        <time>2021-12-30T20:11:50.000Z</time>
      </trkpt>
      <trkpt lat="47.2589" lon="-1.63957">
        <ele>54</ele>
        <time>2021-12-30T20:11:50.000Z</time>
      </trkpt>
      <trkpt lat="47.25907" lon="-1.63976">
        <ele>54</ele>
        <time>2021-12-30T20:11:50.000Z</time>
      </trkpt>
      <trkpt lat="47.25924" lon="-1.63999">
        <ele>54</ele>
        <time>2021-12-30T20:11:50.000Z</time>
      </trkpt>
      <trkpt lat="47.25943" lon="-1.64017">
        <ele>54</ele>
        <time>2021-12-30T20:11:50.000Z</time>
      </trkpt>
      <trkpt lat="47.25962" lon="-1.64031">
        <ele>55</ele>
        <time>2021-12-30T20:11:50.000Z</time>
      </trkpt>
      <trkpt lat="47.25984" lon="-1.64045">
        <ele>56</ele>
        <time>2021-12-30T20:11:50.000Z</time>
      </trkpt>
      <trkpt lat="47.26006" lon="-1.6406">
        <ele>56</ele>
        <time>2021-12-30T20:11:50.000Z</time>
      </trkpt>
      <trkpt lat="47.26028" lon="-1.6407">
        <ele>56</ele>
        <time>2021-12-30T20:11:50.000Z</time>
      </trkpt>
      <trkpt lat="47.26032" lon="-1.64064">
        <ele>56</ele>
        <time>2021-12-30T20:11:57.000Z</time>
      </trkpt>
      <trkpt lat="47.26038" lon="-1.6407">
        <ele>56</ele>
        <time>2021-12-30T20:12:05.000Z</time>
      </trkpt>
      <trkpt lat="47.2604" lon="-1.64078">
        <ele>56</ele>
        <time>2021-12-30T20:12:12.000Z</time>
      </trkpt>
      <trkpt lat="47.26048" lon="-1.64082">
        <ele>56</ele>
        <time>2021-12-30T20:11:50.000Z</time>
      </trkpt>
      <trkpt lat="47.26061" lon="-1.64054">
        <ele>55</ele>
        <time>2021-12-30T20:11:50.000Z</time>
      </trkpt>
      <trkpt lat="47.26075" lon="-1.64031">
        <ele>54</ele>
        <time>2021-12-30T20:11:50.000Z</time>
      </trkpt>
      <trkpt lat="47.26084" lon="-1.64012">
        <ele>54</ele>
        <time>2021-12-30T20:12:08.000Z</time>
      </trkpt>
      <trkpt lat="47.26094" lon="-1.6403">
        <ele>53</ele>
        <time>2021-12-30T20:12:26.000Z</time>
      </trkpt>
      <trkpt lat="47.26105" lon="-1.64038">
        <ele>53</ele>
        <time>2021-12-30T20:11:50.000Z</time>
      </trkpt>
      <trkpt lat="47.26125" lon="-1.6405">
        <ele>53</ele>
        <time>2021-12-30T20:11:50.000Z</time>
      </trkpt>
      <trkpt lat="47.26133" lon="-1.64058">
        <ele>53</ele>
        <time>2021-12-30T20:12:01.000Z</time>
      </trkpt>
      <trkpt lat="47.26143" lon="-1.64062">
        <ele>53</ele>
        <time>2021-12-30T20:11:50.000Z</time>
      </trkpt>
      <trkpt lat="47.26162" lon="-1.64069">
        <ele>52</ele>
        <time>2021-12-30T20:11:50.000Z</time>
      </trkpt>
      <trkpt lat="47.26176" lon="-1.64072">
        <ele>51</ele>
        <time>2021-12-30T20:11:50.000Z</time>
      </trkpt>
      <trkpt lat="47.2618" lon="-1.64048">
        <ele>51</ele>
        <time>2021-12-30T20:12:09.000Z</time>
      </trkpt>
      <trkpt lat="47.26187" lon="-1.6403">
        <ele>50</ele>
        <time>2021-12-30T20:11:50.000Z</time>
      </trkpt>
      <trkpt lat="47.26194" lon="-1.64003">
        <ele>49</ele>
        <time>2021-12-30T20:11:50.000Z</time>
      </trkpt>
      <trkpt lat="47.26207" lon="-1.63974">
        <ele>48</ele>
        <time>2021-12-30T20:11:50.000Z</time>
      </trkpt>
      <trkpt lat="47.26213" lon="-1.6395">
        <ele>46</ele>
        <time>2021-12-30T20:11:50.000Z</time>
      </trkpt>
      <trkpt lat="47.26219" lon="-1.63916">
        <ele>45</ele>
        <time>2021-12-30T20:11:50.000Z</time>
      </trkpt>
      <trkpt lat="47.26226" lon="-1.6388">
        <ele>43</ele>
        <time>2021-12-30T20:11:50.000Z</time>
      </trkpt>
      <trkpt lat="47.26238" lon="-1.63851">
        <ele>41</ele>
        <time>2021-12-30T20:11:50.000Z</time>
      </trkpt>
      <trkpt lat="47.26247" lon="-1.63821">
        <ele>41</ele>
        <time>2021-12-30T20:11:50.000Z</time>
      </trkpt>
      <trkpt lat="47.26264" lon="-1.63798">
        <ele>41</ele>
        <time>2021-12-30T20:11:50.000Z</time>
      </trkpt>
      <trkpt lat="47.26272" lon="-1.63767">
        <ele>41</ele>
        <time>2021-12-30T20:11:50.000Z</time>
      </trkpt>
      <trkpt lat="47.2628" lon="-1.63741">
        <ele>40</ele>
        <time>2021-12-30T20:11:50.000Z</time>
      </trkpt>
      <trkpt lat="47.26285" lon="-1.63726">
        <ele>39</ele>
        <time>2021-12-30T20:12:03.000Z</time>
      </trkpt>
      <trkpt lat="47.263" lon="-1.63727">
        <ele>39</ele>
        <time>2021-12-30T20:11:50.000Z</time>
      </trkpt>
      <trkpt lat="47.26311" lon="-1.63712">
        <ele>40</ele>
        <time>2021-12-30T20:11:50.000Z</time>
      </trkpt>
      <trkpt lat="47.26322" lon="-1.6369">
        <ele>39</ele>
        <time>2021-12-30T20:11:50.000Z</time>
      </trkpt>
      <trkpt lat="47.26331" lon="-1.63661">
        <ele>38</ele>
        <time>2021-12-30T20:11:50.000Z</time>
      </trkpt>
      <trkpt lat="47.26338" lon="-1.63631">
        <ele>37</ele>
        <time>2021-12-30T20:11:50.000Z</time>
      </trkpt>
      <trkpt lat="47.26338" lon="-1.63614">
        <ele>37</ele>
        <time>2021-12-30T20:11:50.000Z</time>
      </trkpt>
      <trkpt lat="47.2633" lon="-1.63594">
        <ele>36</ele>
        <time>2021-12-30T20:12:08.000Z</time>
      </trkpt>
      <trkpt lat="47.26322" lon="-1.63578">
        <ele>34</ele>
        <time>2021-12-30T20:11:50.000Z</time>
      </trkpt>
      <trkpt lat="47.26322" lon="-1.63559">
        <ele>34</ele>
        <time>2021-12-30T20:12:05.000Z</time>
      </trkpt>
      <trkpt lat="47.26319" lon="-1.6355">
        <ele>34</ele>
        <time>2021-12-30T20:12:13.000Z</time>
      </trkpt>
      <trkpt lat="47.26312" lon="-1.63544">
        <ele>34</ele>
        <time>2021-12-30T20:11:50.000Z</time>
      </trkpt>
      <trkpt lat="47.26295" lon="-1.63531">
        <ele>33</ele>
        <time>2021-12-30T20:11:50.000Z</time>
      </trkpt>
      <trkpt lat="47.26289" lon="-1.63519">
        <ele>32</ele>
        <time>2021-12-30T20:12:01.000Z</time>
      </trkpt>
      <trkpt lat="47.2628" lon="-1.63504">
        <ele>33</ele>
        <time>2021-12-30T20:11:50.000Z</time>
      </trkpt>
      <trkpt lat="47.26271" lon="-1.63487">
        <ele>36</ele>
        <time>2021-12-30T20:12:38.000Z</time>
      </trkpt>
      <trkpt lat="47.26276" lon="-1.63468">
        <ele>37</ele>
        <time>2021-12-30T20:11:50.000Z</time>
      </trkpt>
      <trkpt lat="47.26283" lon="-1.63443">
        <ele>39</ele>
        <time>2021-12-30T20:12:31.000Z</time>
      </trkpt>
      <trkpt lat="47.26295" lon="-1.63434">
        <ele>38</ele>
        <time>2021-12-30T20:11:50.000Z</time>
      </trkpt>
      <trkpt lat="47.26304" lon="-1.63427">
        <ele>38</ele>
        <time>2021-12-30T20:12:02.000Z</time>
      </trkpt>
      <trkpt lat="47.26315" lon="-1.63418">
        <ele>37</ele>
        <time>2021-12-30T20:11:50.000Z</time>
      </trkpt>
      <trkpt lat="47.26334" lon="-1.63408">
        <ele>36</ele>
        <time>2021-12-30T20:11:50.000Z</time>
      </trkpt>
      <trkpt lat="47.26351" lon="-1.63397">
        <ele>33</ele>
        <time>2021-12-30T20:11:50.000Z</time>
      </trkpt>
      <trkpt lat="47.26363" lon="-1.63397">
        <ele>31</ele>
        <time>2021-12-30T20:12:03.000Z</time>
      </trkpt>
      <trkpt lat="47.26371" lon="-1.6337">
        <ele>32</ele>
        <time>2021-12-30T20:11:50.000Z</time>
      </trkpt>
      <trkpt lat="47.26378" lon="-1.63358">
        <ele>31</ele>
        <time>2021-12-30T20:12:02.000Z</time>
      </trkpt>
      <trkpt lat="47.26385" lon="-1.63348">
        <ele>30</ele>
        <time>2021-12-30T20:11:50.000Z</time>
      </trkpt>
      <trkpt lat="47.26399" lon="-1.63357">
        <ele>29</ele>
        <time>2021-12-30T20:12:07.000Z</time>
      </trkpt>
      <trkpt lat="47.2641" lon="-1.63348">
        <ele>29</ele>
        <time>2021-12-30T20:11:50.000Z</time>
      </trkpt>
      <trkpt lat="47.26418" lon="-1.63333">
        <ele>28</ele>
        <time>2021-12-30T20:12:05.000Z</time>
      </trkpt>
      <trkpt lat="47.26422" lon="-1.63322">
        <ele>28</ele>
        <time>2021-12-30T20:11:50.000Z</time>
      </trkpt>
      <trkpt lat="47.26425" lon="-1.63307">
        <ele>29</ele>
        <time>2021-12-30T20:12:12.000Z</time>
      </trkpt>
      <trkpt lat="47.26426" lon="-1.63287">
        <ele>29</ele>
        <time>2021-12-30T20:11:50.000Z</time>
      </trkpt>
      <trkpt lat="47.26427" lon="-1.63272">
        <ele>29</ele>
        <time>2021-12-30T20:12:02.000Z</time>
      </trkpt>
      <trkpt lat="47.26425" lon="-1.63262">
        <ele>30</ele>
        <time>2021-12-30T20:11:50.000Z</time>
      </trkpt>
      <trkpt lat="47.26421" lon="-1.63245">
        <ele>31</ele>
        <time>2021-12-30T20:12:14.000Z</time>
      </trkpt>
      <trkpt lat="47.26421" lon="-1.63231">
        <ele>32</ele>
        <time>2021-12-30T20:12:36.000Z</time>
      </trkpt>
      <trkpt lat="47.26419" lon="-1.63218">
        <ele>32</ele>
        <time>2021-12-30T20:11:50.000Z</time>
      </trkpt>
      <trkpt lat="47.26416" lon="-1.63198">
        <ele>33</ele>
        <time>2021-12-30T20:12:16.000Z</time>
      </trkpt>
      <trkpt lat="47.26434" lon="-1.63191">
        <ele>33</ele>
        <time>2021-12-30T20:11:50.000Z</time>
      </trkpt>
      <trkpt lat="47.26457" lon="-1.6318">
        <ele>32</ele>
        <time>2021-12-30T20:11:50.000Z</time>
      </trkpt>
      <trkpt lat="47.26477" lon="-1.6317">
        <ele>31</ele>
        <time>2021-12-30T20:11:50.000Z</time>
      </trkpt>
      <trkpt lat="47.26501" lon="-1.63155">
        <ele>30</ele>
        <time>2021-12-30T20:11:50.000Z</time>
      </trkpt>
      <trkpt lat="47.26517" lon="-1.63145">
        <ele>31</ele>
        <time>2021-12-30T20:11:50.000Z</time>
      </trkpt>
      <trkpt lat="47.2653" lon="-1.63138">
        <ele>32</ele>
        <time>2021-12-30T20:12:16.000Z</time>
      </trkpt>
      <trkpt lat="47.26543" lon="-1.63131">
        <ele>32</ele>
        <time>2021-12-30T20:11:50.000Z</time>
      </trkpt>
      <trkpt lat="47.26563" lon="-1.63117">
        <ele>33</ele>
        <time>2021-12-30T20:11:50.000Z</time>
      </trkpt>
      <trkpt lat="47.26585" lon="-1.63108">
        <ele>35</ele>
        <time>2021-12-30T20:11:50.000Z</time>
      </trkpt>
      <trkpt lat="47.26608" lon="-1.63099">
        <ele>36</ele>
        <time>2021-12-30T20:11:50.000Z</time>
      </trkpt>
      <trkpt lat="47.26629" lon="-1.63092">
        <ele>37</ele>
        <time>2021-12-30T20:11:50.000Z</time>
      </trkpt>
      <trkpt lat="47.26652" lon="-1.63083">
        <ele>38</ele>
        <time>2021-12-30T20:11:50.000Z</time>
      </trkpt>
      <trkpt lat="47.26666" lon="-1.63087">
        <ele>37</ele>
        <time>2021-12-30T20:12:06.000Z</time>
      </trkpt>
      <trkpt lat="47.26673" lon="-1.63089">
        <ele>37</ele>
        <time>2021-12-30T20:11:50.000Z</time>
      </trkpt>
      <trkpt lat="47.26687" lon="-1.631">
        <ele>35</ele>
        <time>2021-12-30T20:11:50.000Z</time>
      </trkpt>
      <trkpt lat="47.26696" lon="-1.63108">
        <ele>34</ele>
        <time>2021-12-30T20:12:02.000Z</time>
      </trkpt>
      <trkpt lat="47.26709" lon="-1.63102">
        <ele>32</ele>
        <time>2021-12-30T20:12:17.000Z</time>
      </trkpt>
      <trkpt lat="47.26718" lon="-1.63098">
        <ele>30</ele>
        <time>2021-12-30T20:11:50.000Z</time>
      </trkpt>
      <trkpt lat="47.26733" lon="-1.63126">
        <ele>29</ele>
        <time>2021-12-30T20:11:50.000Z</time>
      </trkpt>
      <trkpt lat="47.26752" lon="-1.63143">
        <ele>25</ele>
        <time>2021-12-30T20:11:50.000Z</time>
      </trkpt>
      <trkpt lat="47.26774" lon="-1.63153">
        <ele>20</ele>
        <time>2021-12-30T20:11:50.000Z</time>
      </trkpt>
      <trkpt lat="47.26795" lon="-1.63163">
        <ele>18</ele>
        <time>2021-12-30T20:11:50.000Z</time>
      </trkpt>
      <trkpt lat="47.26818" lon="-1.63173">
        <ele>17</ele>
        <time>2021-12-30T20:11:50.000Z</time>
      </trkpt>
      <trkpt lat="47.26842" lon="-1.6318">
        <ele>18</ele>
        <time>2021-12-30T20:11:50.000Z</time>
      </trkpt>
      <trkpt lat="47.26864" lon="-1.6319">
        <ele>19</ele>
        <time>2021-12-30T20:11:50.000Z</time>
      </trkpt>
      <trkpt lat="47.26853" lon="-1.6316">
        <ele>18</ele>
        <time>2021-12-30T20:11:50.000Z</time>
      </trkpt>
      <trkpt lat="47.26844" lon="-1.63129">
        <ele>17</ele>
        <time>2021-12-30T20:11:50.000Z</time>
      </trkpt>
      <trkpt lat="47.26834" lon="-1.631">
        <ele>18</ele>
        <time>2021-12-30T20:11:50.000Z</time>
      </trkpt>
      <trkpt lat="47.26827" lon="-1.63085">
        <ele>18</ele>
        <time>2021-12-30T20:12:04.000Z</time>
      </trkpt>
      <trkpt lat="47.2682" lon="-1.63075">
        <ele>19</ele>
        <time>2021-12-30T20:11:50.000Z</time>
      </trkpt>
      <trkpt lat="47.2681" lon="-1.63061">
        <ele>19</ele>
        <time>2021-12-30T20:12:06.000Z</time>
      </trkpt>
      <trkpt lat="47.26796" lon="-1.63055">
        <ele>19</ele>
        <time>2021-12-30T20:11:50.000Z</time>
      </trkpt>
      <trkpt lat="47.26786" lon="-1.63057">
        <ele>18</ele>
        <time>2021-12-30T20:12:02.000Z</time>
      </trkpt>
      <trkpt lat="47.26778" lon="-1.63067">
        <ele>18</ele>
        <time>2021-12-30T20:11:50.000Z</time>
      </trkpt>
      <trkpt lat="47.26765" lon="-1.63065">
        <ele>18</ele>
        <time>2021-12-30T20:12:05.000Z</time>
      </trkpt>
      <trkpt lat="47.26756" lon="-1.63059">
        <ele>19</ele>
        <time>2021-12-30T20:11:50.000Z</time>
      </trkpt>
      <trkpt lat="47.26745" lon="-1.6305">
        <ele>20</ele>
        <time>2021-12-30T20:12:15.000Z</time>
      </trkpt>
      <trkpt lat="47.26737" lon="-1.6304">
        <ele>20</ele>
        <time>2021-12-30T20:11:50.000Z</time>
      </trkpt>
      <trkpt lat="47.26731" lon="-1.6302">
        <ele>19</ele>
        <time>2021-12-30T20:12:07.000Z</time>
      </trkpt>
      <trkpt lat="47.26734" lon="-1.62999">
        <ele>19</ele>
        <time>2021-12-30T20:11:50.000Z</time>
      </trkpt>
      <trkpt lat="47.26741" lon="-1.6297">
        <ele>19</ele>
        <time>2021-12-30T20:11:50.000Z</time>
      </trkpt>
      <trkpt lat="47.26748" lon="-1.62934">
        <ele>18</ele>
        <time>2021-12-30T20:11:50.000Z</time>
      </trkpt>
      <trkpt lat="47.26755" lon="-1.62903">
        <ele>18</ele>
        <time>2021-12-30T20:11:50.000Z</time>
      </trkpt>
      <trkpt lat="47.26759" lon="-1.62873">
        <ele>17</ele>
        <time>2021-12-30T20:11:50.000Z</time>
      </trkpt>
      <trkpt lat="47.26758" lon="-1.62857">
        <ele>18</ele>
        <time>2021-12-30T20:12:13.000Z</time>
      </trkpt>
      <trkpt lat="47.26754" lon="-1.62838">
        <ele>19</ele>
        <time>2021-12-30T20:11:50.000Z</time>
      </trkpt>
      <trkpt lat="47.26751" lon="-1.62822">
        <ele>19</ele>
        <time>2021-12-30T20:12:03.000Z</time>
      </trkpt>
      <trkpt lat="47.26752" lon="-1.62808">
        <ele>19</ele>
        <time>2021-12-30T20:11:50.000Z</time>
      </trkpt>
      <trkpt lat="47.26754" lon="-1.62786">
        <ele>19</ele>
        <time>2021-12-30T20:12:07.000Z</time>
      </trkpt>
      <trkpt lat="47.26753" lon="-1.62771">
        <ele>19</ele>
        <time>2021-12-30T20:11:50.000Z</time>
      </trkpt>
      <trkpt lat="47.2675" lon="-1.62756">
        <ele>19</ele>
        <time>2021-12-30T20:12:02.000Z</time>
      </trkpt>
      <trkpt lat="47.26752" lon="-1.6274">
        <ele>18</ele>
        <time>2021-12-30T20:11:50.000Z</time>
      </trkpt>
      <trkpt lat="47.26753" lon="-1.62722">
        <ele>18</ele>
        <time>2021-12-30T20:12:04.000Z</time>
      </trkpt>
      <trkpt lat="47.26747" lon="-1.62709">
        <ele>18</ele>
        <time>2021-12-30T20:12:16.000Z</time>
      </trkpt>
      <trkpt lat="47.26746" lon="-1.62689">
        <ele>19</ele>
        <time>2021-12-30T20:11:50.000Z</time>
      </trkpt>
      <trkpt lat="47.26746" lon="-1.62666">
        <ele>19</ele>
        <time>2021-12-30T20:11:50.000Z</time>
      </trkpt>
      <trkpt lat="47.26748" lon="-1.62635">
        <ele>19</ele>
        <time>2021-12-30T20:11:50.000Z</time>
      </trkpt>
      <trkpt lat="47.26745" lon="-1.62605">
        <ele>20</ele>
        <time>2021-12-30T20:11:50.000Z</time>
      </trkpt>
      <trkpt lat="47.26744" lon="-1.62571">
        <ele>20</ele>
        <time>2021-12-30T20:11:50.000Z</time>
      </trkpt>
      <trkpt lat="47.2674" lon="-1.62539">
        <ele>20</ele>
        <time>2021-12-30T20:11:50.000Z</time>
      </trkpt>
      <trkpt lat="47.26736" lon="-1.62508">
        <ele>21</ele>
        <time>2021-12-30T20:11:50.000Z</time>
      </trkpt>
      <trkpt lat="47.26737" lon="-1.62471">
        <ele>21</ele>
        <time>2021-12-30T20:11:50.000Z</time>
      </trkpt>
      <trkpt lat="47.26738" lon="-1.6245">
        <ele>21</ele>
        <time>2021-12-30T20:12:06.000Z</time>
      </trkpt>
      <trkpt lat="47.26741" lon="-1.62428">
        <ele>20</ele>
        <time>2021-12-30T20:11:50.000Z</time>
      </trkpt>
      <trkpt lat="47.26747" lon="-1.62401">
        <ele>20</ele>
        <time>2021-12-30T20:11:50.000Z</time>
      </trkpt>
      <trkpt lat="47.26745" lon="-1.62384">
        <ele>20</ele>
        <time>2021-12-30T20:12:03.000Z</time>
      </trkpt>
      <trkpt lat="47.26741" lon="-1.62367">
        <ele>21</ele>
        <time>2021-12-30T20:11:50.000Z</time>
      </trkpt>
      <trkpt lat="47.26737" lon="-1.6234">
        <ele>20</ele>
        <time>2021-12-30T20:11:50.000Z</time>
      </trkpt>
      <trkpt lat="47.26734" lon="-1.6232">
        <ele>18</ele>
        <time>2021-12-30T20:12:06.000Z</time>
      </trkpt>
      <trkpt lat="47.26729" lon="-1.623">
        <ele>22</ele>
        <time>2021-12-30T20:11:50.000Z</time>
      </trkpt>
      <trkpt lat="47.26741" lon="-1.62307">
        <ele>21</ele>
        <time>2021-12-30T20:12:05.000Z</time>
      </trkpt>
      <trkpt lat="47.26751" lon="-1.62308">
        <ele>21</ele>
        <time>2021-12-30T20:11:50.000Z</time>
      </trkpt>
      <trkpt lat="47.26774" lon="-1.62309">
        <ele>21</ele>
        <time>2021-12-30T20:11:50.000Z</time>
      </trkpt>
      <trkpt lat="47.26798" lon="-1.62315">
        <ele>23</ele>
        <time>2021-12-30T20:11:50.000Z</time>
      </trkpt>
      <trkpt lat="47.26819" lon="-1.62331">
        <ele>24</ele>
        <time>2021-12-30T20:11:50.000Z</time>
      </trkpt>
      <trkpt lat="47.26831" lon="-1.62357">
        <ele>25</ele>
        <time>2021-12-30T20:11:50.000Z</time>
      </trkpt>
      <trkpt lat="47.26845" lon="-1.62387">
        <ele>27</ele>
        <time>2021-12-30T20:11:50.000Z</time>
      </trkpt>
      <trkpt lat="47.26855" lon="-1.62407">
        <ele>28</ele>
        <time>2021-12-30T20:11:50.000Z</time>
      </trkpt>
      <trkpt lat="47.26843" lon="-1.62404">
        <ele>25</ele>
        <time>2021-12-30T20:12:05.000Z</time>
      </trkpt>
      <trkpt lat="47.26831" lon="-1.62394">
        <ele>24</ele>
        <time>2021-12-30T20:12:20.000Z</time>
      </trkpt>
      <trkpt lat="47.26819" lon="-1.62382">
        <ele>22</ele>
        <time>2021-12-30T20:11:50.000Z</time>
      </trkpt>
      <trkpt lat="47.26806" lon="-1.62372">
        <ele>21</ele>
        <time>2021-12-30T20:12:07.000Z</time>
      </trkpt>
      <trkpt lat="47.26793" lon="-1.62366">
        <ele>18</ele>
        <time>2021-12-30T20:11:50.000Z</time>
      </trkpt>
      <trkpt lat="47.26778" lon="-1.62352">
        <ele>16</ele>
        <time>2021-12-30T20:11:50.000Z</time>
      </trkpt>
      <trkpt lat="47.26766" lon="-1.62324">
        <ele>16</ele>
        <time>2021-12-30T20:11:50.000Z</time>
      </trkpt>
      <trkpt lat="47.26764" lon="-1.62288">
        <ele>16</ele>
        <time>2021-12-30T20:11:50.000Z</time>
      </trkpt>
      <trkpt lat="47.26769" lon="-1.62278">
        <ele>16</ele>
        <time>2021-12-30T20:12:00.000Z</time>
      </trkpt>
      <trkpt lat="47.2677" lon="-1.62263">
        <ele>16</ele>
        <time>2021-12-30T20:11:50.000Z</time>
      </trkpt>
      <trkpt lat="47.26759" lon="-1.62257">
        <ele>16</ele>
        <time>2021-12-30T20:12:03.000Z</time>
      </trkpt>
      <trkpt lat="47.26754" lon="-1.6224">
        <ele>16</ele>
        <time>2021-12-30T20:12:17.000Z</time>
      </trkpt>
      <trkpt lat="47.26754" lon="-1.62228">
        <ele>16</ele>
        <time>2021-12-30T20:11:50.000Z</time>
      </trkpt>
      <trkpt lat="47.26754" lon="-1.62212">
        <ele>16</ele>
        <time>2021-12-30T20:12:03.000Z</time>
      </trkpt>
      <trkpt lat="47.26754" lon="-1.62196">
        <ele>17</ele>
        <time>2021-12-30T20:11:50.000Z</time>
      </trkpt>
      <trkpt lat="47.26754" lon="-1.62178">
        <ele>16</ele>
        <time>2021-12-30T20:12:04.000Z</time>
      </trkpt>
      <trkpt lat="47.26753" lon="-1.62159">
        <ele>16</ele>
        <time>2021-12-30T20:11:50.000Z</time>
      </trkpt>
      <trkpt lat="47.26751" lon="-1.6213">
        <ele>16</ele>
        <time>2021-12-30T20:11:50.000Z</time>
      </trkpt>
      <trkpt lat="47.2675" lon="-1.62108">
        <ele>16</ele>
        <time>2021-12-30T20:11:50.000Z</time>
      </trkpt>
      <trkpt lat="47.26748" lon="-1.62082">
        <ele>16</ele>
        <time>2021-12-30T20:11:50.000Z</time>
      </trkpt>
      <trkpt lat="47.26747" lon="-1.62067">
        <ele>16</ele>
        <time>2021-12-30T20:12:01.000Z</time>
      </trkpt>
      <trkpt lat="47.26742" lon="-1.62052">
        <ele>17</ele>
        <time>2021-12-30T20:11:50.000Z</time>
      </trkpt>
      <trkpt lat="47.26741" lon="-1.62023">
        <ele>16</ele>
        <time>2021-12-30T20:11:50.000Z</time>
      </trkpt>
      <trkpt lat="47.26742" lon="-1.61988">
        <ele>16</ele>
        <time>2021-12-30T20:11:50.000Z</time>
      </trkpt>
      <trkpt lat="47.26743" lon="-1.6195">
        <ele>16</ele>
        <time>2021-12-30T20:11:50.000Z</time>
      </trkpt>
      <trkpt lat="47.26744" lon="-1.61919">
        <ele>17</ele>
        <time>2021-12-30T20:11:50.000Z</time>
      </trkpt>
      <trkpt lat="47.26748" lon="-1.61886">
        <ele>16</ele>
        <time>2021-12-30T20:11:50.000Z</time>
      </trkpt>
      <trkpt lat="47.26754" lon="-1.61867">
        <ele>16</ele>
        <time>2021-12-30T20:12:06.000Z</time>
      </trkpt>
      <trkpt lat="47.26753" lon="-1.61848">
        <ele>16</ele>
        <time>2021-12-30T20:11:50.000Z</time>
      </trkpt>
      <trkpt lat="47.26739" lon="-1.61828">
        <ele>15</ele>
        <time>2021-12-30T20:11:50.000Z</time>
      </trkpt>
      <trkpt lat="47.26718" lon="-1.61807">
        <ele>15</ele>
        <time>2021-12-30T20:11:50.000Z</time>
      </trkpt>
      <trkpt lat="47.26695" lon="-1.61797">
        <ele>15</ele>
        <time>2021-12-30T20:11:50.000Z</time>
      </trkpt>
      <trkpt lat="47.26673" lon="-1.61787">
        <ele>15</ele>
        <time>2021-12-30T20:11:50.000Z</time>
      </trkpt>
      <trkpt lat="47.26653" lon="-1.61776">
        <ele>15</ele>
        <time>2021-12-30T20:11:50.000Z</time>
      </trkpt>
      <trkpt lat="47.26631" lon="-1.61764">
        <ele>15</ele>
        <time>2021-12-30T20:11:50.000Z</time>
      </trkpt>
      <trkpt lat="47.26607" lon="-1.61751">
        <ele>15</ele>
        <time>2021-12-30T20:11:50.000Z</time>
      </trkpt>
      <trkpt lat="47.26591" lon="-1.61736">
        <ele>15</ele>
        <time>2021-12-30T20:11:50.000Z</time>
      </trkpt>
      <trkpt lat="47.26577" lon="-1.61709">
        <ele>15</ele>
        <time>2021-12-30T20:11:50.000Z</time>
      </trkpt>
      <trkpt lat="47.26565" lon="-1.61685">
        <ele>15</ele>
        <time>2021-12-30T20:11:50.000Z</time>
      </trkpt>
      <trkpt lat="47.2655" lon="-1.61651">
        <ele>15</ele>
        <time>2021-12-30T20:11:50.000Z</time>
      </trkpt>
      <trkpt lat="47.26538" lon="-1.61624">
        <ele>15</ele>
        <time>2021-12-30T20:11:50.000Z</time>
      </trkpt>
      <trkpt lat="47.26522" lon="-1.616">
        <ele>15</ele>
        <time>2021-12-30T20:11:50.000Z</time>
      </trkpt>
      <trkpt lat="47.26497" lon="-1.61589">
        <ele>15</ele>
        <time>2021-12-30T20:11:50.000Z</time>
      </trkpt>
      <trkpt lat="47.26475" lon="-1.6158">
        <ele>15</ele>
        <time>2021-12-30T20:11:50.000Z</time>
      </trkpt>
      <trkpt lat="47.26462" lon="-1.61576">
        <ele>15</ele>
        <time>2021-12-30T20:12:06.000Z</time>
      </trkpt>
      <trkpt lat="47.26448" lon="-1.61567">
        <ele>15</ele>
        <time>2021-12-30T20:11:50.000Z</time>
      </trkpt>
      <trkpt lat="47.26439" lon="-1.61556">
        <ele>15</ele>
        <time>2021-12-30T20:12:04.000Z</time>
      </trkpt>
      <trkpt lat="47.26434" lon="-1.61546">
        <ele>15</ele>
        <time>2021-12-30T20:11:50.000Z</time>
      </trkpt>
      <trkpt lat="47.26419" lon="-1.61525">
        <ele>15</ele>
        <time>2021-12-30T20:11:50.000Z</time>
      </trkpt>
      <trkpt lat="47.26395" lon="-1.61517">
        <ele>16</ele>
        <time>2021-12-30T20:11:50.000Z</time>
      </trkpt>
      <trkpt lat="47.26379" lon="-1.61507">
        <ele>16</ele>
        <time>2021-12-30T20:11:50.000Z</time>
      </trkpt>
      <trkpt lat="47.26364" lon="-1.61499">
        <ele>17</ele>
        <time>2021-12-30T20:12:19.000Z</time>
      </trkpt>
      <trkpt lat="47.26352" lon="-1.61486">
        <ele>16</ele>
        <time>2021-12-30T20:11:50.000Z</time>
      </trkpt>
      <trkpt lat="47.26339" lon="-1.61451">
        <ele>15</ele>
        <time>2021-12-30T20:11:50.000Z</time>
      </trkpt>
      <trkpt lat="47.26329" lon="-1.61418">
        <ele>15</ele>
        <time>2021-12-30T20:11:50.000Z</time>
      </trkpt>
      <trkpt lat="47.26322" lon="-1.61386">
        <ele>14</ele>
        <time>2021-12-30T20:11:50.000Z</time>
      </trkpt>
      <trkpt lat="47.26319" lon="-1.61366">
        <ele>14</ele>
        <time>2021-12-30T20:12:06.000Z</time>
      </trkpt>
      <trkpt lat="47.26314" lon="-1.61343">
        <ele>14</ele>
        <time>2021-12-30T20:11:50.000Z</time>
      </trkpt>
      <trkpt lat="47.26316" lon="-1.61317">
        <ele>14</ele>
        <time>2021-12-30T20:11:50.000Z</time>
      </trkpt>
      <trkpt lat="47.2632" lon="-1.61281">
        <ele>14</ele>
        <time>2021-12-30T20:11:50.000Z</time>
      </trkpt>
      <trkpt lat="47.26322" lon="-1.61245">
        <ele>14</ele>
        <time>2021-12-30T20:11:50.000Z</time>
      </trkpt>
      <trkpt lat="47.26326" lon="-1.61214">
        <ele>14</ele>
        <time>2021-12-30T20:11:50.000Z</time>
      </trkpt>
      <trkpt lat="47.26335" lon="-1.61186">
        <ele>14</ele>
        <time>2021-12-30T20:11:50.000Z</time>
      </trkpt>
      <trkpt lat="47.26349" lon="-1.61157">
        <ele>13</ele>
        <time>2021-12-30T20:11:50.000Z</time>
      </trkpt>
      <trkpt lat="47.26362" lon="-1.61127">
        <ele>14</ele>
        <time>2021-12-30T20:11:50.000Z</time>
      </trkpt>
      <trkpt lat="47.26379" lon="-1.61105">
        <ele>13</ele>
        <time>2021-12-30T20:11:50.000Z</time>
      </trkpt>
      <trkpt lat="47.26386" lon="-1.61084">
        <ele>14</ele>
        <time>2021-12-30T20:12:18.000Z</time>
      </trkpt>
      <trkpt lat="47.26394" lon="-1.61061">
        <ele>14</ele>
        <time>2021-12-30T20:12:39.000Z</time>
      </trkpt>
      <trkpt lat="47.26396" lon="-1.61044">
        <ele>14</ele>
        <time>2021-12-30T20:11:50.000Z</time>
      </trkpt>
      <trkpt lat="47.26398" lon="-1.61022">
        <ele>14</ele>
        <time>2021-12-30T20:12:07.000Z</time>
      </trkpt>
      <trkpt lat="47.26399" lon="-1.61006">
        <ele>14</ele>
        <time>2021-12-30T20:11:50.000Z</time>
      </trkpt>
      <trkpt lat="47.26399" lon="-1.60974">
        <ele>14</ele>
        <time>2021-12-30T20:11:50.000Z</time>
      </trkpt>
      <trkpt lat="47.26394" lon="-1.6094">
        <ele>14</ele>
        <time>2021-12-30T20:11:50.000Z</time>
      </trkpt>
      <trkpt lat="47.26394" lon="-1.60907">
        <ele>14</ele>
        <time>2021-12-30T20:11:50.000Z</time>
      </trkpt>
      <trkpt lat="47.26391" lon="-1.60874">
        <ele>14</ele>
        <time>2021-12-30T20:11:50.000Z</time>
      </trkpt>
      <trkpt lat="47.26377" lon="-1.60846">
        <ele>16</ele>
        <time>2021-12-30T20:11:50.000Z</time>
      </trkpt>
      <trkpt lat="47.2637" lon="-1.60835">
        <ele>17</ele>
        <time>2021-12-30T20:12:11.000Z</time>
      </trkpt>
      <trkpt lat="47.2636" lon="-1.60834">
        <ele>17</ele>
        <time>2021-12-30T20:12:23.000Z</time>
      </trkpt>
      <trkpt lat="47.2635" lon="-1.60842">
        <ele>17</ele>
        <time>2021-12-30T20:11:50.000Z</time>
      </trkpt>
      <trkpt lat="47.26335" lon="-1.60859">
        <ele>18</ele>
        <time>2021-12-30T20:11:50.000Z</time>
      </trkpt>
      <trkpt lat="47.26329" lon="-1.60861">
        <ele>17</ele>
        <time>2021-12-30T20:11:56.000Z</time>
      </trkpt>
      <trkpt lat="47.26321" lon="-1.60857">
        <ele>17</ele>
        <time>2021-12-30T20:12:06.000Z</time>
      </trkpt>
      <trkpt lat="47.26332" lon="-1.60825">
        <ele>16</ele>
        <time>2021-12-30T20:11:50.000Z</time>
      </trkpt>
      <trkpt lat="47.2634" lon="-1.60796">
        <ele>15</ele>
        <time>2021-12-30T20:11:50.000Z</time>
      </trkpt>
      <trkpt lat="47.26348" lon="-1.60761">
        <ele>15</ele>
        <time>2021-12-30T20:11:50.000Z</time>
      </trkpt>
      <trkpt lat="47.26352" lon="-1.60744">
        <ele>15</ele>
        <time>2021-12-30T20:12:04.000Z</time>
      </trkpt>
      <trkpt lat="47.26356" lon="-1.60728">
        <ele>14</ele>
        <time>2021-12-30T20:11:50.000Z</time>
      </trkpt>
      <trkpt lat="47.26364" lon="-1.60698">
        <ele>13</ele>
        <time>2021-12-30T20:11:50.000Z</time>
      </trkpt>
      <trkpt lat="47.26363" lon="-1.60686">
        <ele>13</ele>
        <time>2021-12-30T20:11:59.000Z</time>
      </trkpt>
      <trkpt lat="47.26356" lon="-1.60675">
        <ele>14</ele>
        <time>2021-12-30T20:11:50.000Z</time>
      </trkpt>
      <trkpt lat="47.26327" lon="-1.60649">
        <ele>13</ele>
        <time>2021-12-30T20:11:50.000Z</time>
      </trkpt>
      <trkpt lat="47.26316" lon="-1.60651">
        <ele>13</ele>
        <time>2021-12-30T20:12:03.000Z</time>
      </trkpt>
      <trkpt lat="47.26305" lon="-1.60631">
        <ele>13</ele>
        <time>2021-12-30T20:11:50.000Z</time>
      </trkpt>
      <trkpt lat="47.26295" lon="-1.60619">
        <ele>14</ele>
        <time>2021-12-30T20:12:15.000Z</time>
      </trkpt>
      <trkpt lat="47.26287" lon="-1.60612">
        <ele>14</ele>
        <time>2021-12-30T20:12:26.000Z</time>
      </trkpt>
      <trkpt lat="47.26276" lon="-1.60606">
        <ele>13</ele>
        <time>2021-12-30T20:12:39.000Z</time>
      </trkpt>
      <trkpt lat="47.26279" lon="-1.60595">
        <ele>13</ele>
        <time>2021-12-30T20:12:47.000Z</time>
      </trkpt>
      <trkpt lat="47.2628" lon="-1.60577">
        <ele>13</ele>
        <time>2021-12-30T20:11:50.000Z</time>
      </trkpt>
      <trkpt lat="47.26279" lon="-1.6055">
        <ele>13</ele>
        <time>2021-12-30T20:11:50.000Z</time>
      </trkpt>
      <trkpt lat="47.2628" lon="-1.60526">
        <ele>13</ele>
        <time>2021-12-30T20:12:09.000Z</time>
      </trkpt>
      <trkpt lat="47.26279" lon="-1.60507">
        <ele>13</ele>
        <time>2021-12-30T20:11:50.000Z</time>
      </trkpt>
      <trkpt lat="47.26271" lon="-1.60479">
        <ele>14</ele>
        <time>2021-12-30T20:11:50.000Z</time>
      </trkpt>
      <trkpt lat="47.26269" lon="-1.60459">
        <ele>16</ele>
        <time>2021-12-30T20:12:26.000Z</time>
      </trkpt>
      <trkpt lat="47.26271" lon="-1.60441">
        <ele>15</ele>
        <time>2021-12-30T20:11:50.000Z</time>
      </trkpt>
      <trkpt lat="47.26281" lon="-1.60413">
        <ele>15</ele>
        <time>2021-12-30T20:11:50.000Z</time>
      </trkpt>
      <trkpt lat="47.2629" lon="-1.60384">
        <ele>14</ele>
        <time>2021-12-30T20:11:50.000Z</time>
      </trkpt>
      <trkpt lat="47.26301" lon="-1.60352">
        <ele>14</ele>
        <time>2021-12-30T20:11:50.000Z</time>
      </trkpt>
      <trkpt lat="47.26307" lon="-1.6032">
        <ele>14</ele>
        <time>2021-12-30T20:11:50.000Z</time>
      </trkpt>
      <trkpt lat="47.26312" lon="-1.60293">
        <ele>13</ele>
        <time>2021-12-30T20:11:50.000Z</time>
      </trkpt>
      <trkpt lat="47.26321" lon="-1.60261">
        <ele>12</ele>
        <time>2021-12-30T20:11:50.000Z</time>
      </trkpt>
      <trkpt lat="47.26322" lon="-1.60234">
        <ele>12</ele>
        <time>2021-12-30T20:11:50.000Z</time>
      </trkpt>
      <trkpt lat="47.26307" lon="-1.60222">
        <ele>12</ele>
        <time>2021-12-30T20:11:50.000Z</time>
      </trkpt>
      <trkpt lat="47.26293" lon="-1.60218">
        <ele>12</ele>
        <time>2021-12-30T20:12:06.000Z</time>
      </trkpt>
      <trkpt lat="47.26279" lon="-1.60204">
        <ele>12</ele>
        <time>2021-12-30T20:11:50.000Z</time>
      </trkpt>
      <trkpt lat="47.26268" lon="-1.60183">
        <ele>11</ele>
        <time>2021-12-30T20:11:50.000Z</time>
      </trkpt>
      <trkpt lat="47.26248" lon="-1.60172">
        <ele>11</ele>
        <time>2021-12-30T20:11:50.000Z</time>
      </trkpt>
      <trkpt lat="47.26236" lon="-1.60166">
        <ele>11</ele>
        <time>2021-12-30T20:12:04.000Z</time>
      </trkpt>
      <trkpt lat="47.26226" lon="-1.60156">
        <ele>11</ele>
        <time>2021-12-30T20:11:50.000Z</time>
      </trkpt>
      <trkpt lat="47.26219" lon="-1.60148">
        <ele>11</ele>
        <time>2021-12-30T20:12:01.000Z</time>
      </trkpt>
      <trkpt lat="47.26209" lon="-1.60139">
        <ele>11</ele>
        <time>2021-12-30T20:11:50.000Z</time>
      </trkpt>
      <trkpt lat="47.26202" lon="-1.60124">
        <ele>12</ele>
        <time>2021-12-30T20:12:14.000Z</time>
      </trkpt>
      <trkpt lat="47.26196" lon="-1.60106">
        <ele>11</ele>
        <time>2021-12-30T20:11:50.000Z</time>
      </trkpt>
      <trkpt lat="47.2618" lon="-1.60083">
        <ele>15</ele>
        <time>2021-12-30T20:11:50.000Z</time>
      </trkpt>
      <trkpt lat="47.2618" lon="-1.60048">
        <ele>13</ele>
        <time>2021-12-30T20:11:50.000Z</time>
      </trkpt>
      <trkpt lat="47.2618" lon="-1.60013">
        <ele>12</ele>
        <time>2021-12-30T20:11:50.000Z</time>
      </trkpt>
      <trkpt lat="47.26182" lon="-1.59988">
        <ele>12</ele>
        <time>2021-12-30T20:12:09.000Z</time>
      </trkpt>
      <trkpt lat="47.26178" lon="-1.59977">
        <ele>13</ele>
        <time>2021-12-30T20:11:50.000Z</time>
      </trkpt>
      <trkpt lat="47.2617" lon="-1.59968">
        <ele>13</ele>
        <time>2021-12-30T20:12:01.000Z</time>
      </trkpt>
      <trkpt lat="47.26163" lon="-1.59963">
        <ele>14</ele>
        <time>2021-12-30T20:12:21.000Z</time>
      </trkpt>
      <trkpt lat="47.26153" lon="-1.5997">
        <ele>17</ele>
        <time>2021-12-30T20:13:04.000Z</time>
      </trkpt>
      <trkpt lat="47.26144" lon="-1.59962">
        <ele>17</ele>
        <time>2021-12-30T20:13:16.000Z</time>
      </trkpt>
      <trkpt lat="47.26135" lon="-1.59953">
        <ele>18</ele>
        <time>2021-12-30T20:11:50.000Z</time>
      </trkpt>
      <trkpt lat="47.26116" lon="-1.59937">
        <ele>18</ele>
        <time>2021-12-30T20:11:50.000Z</time>
      </trkpt>
      <trkpt lat="47.26096" lon="-1.59921">
        <ele>19</ele>
        <time>2021-12-30T20:11:50.000Z</time>
      </trkpt>
      <trkpt lat="47.26077" lon="-1.59906">
        <ele>20</ele>
        <time>2021-12-30T20:11:50.000Z</time>
      </trkpt>
      <trkpt lat="47.26056" lon="-1.59889">
        <ele>21</ele>
        <time>2021-12-30T20:11:50.000Z</time>
      </trkpt>
      <trkpt lat="47.26035" lon="-1.59871">
        <ele>23</ele>
        <time>2021-12-30T20:11:50.000Z</time>
      </trkpt>
      <trkpt lat="47.26015" lon="-1.59855">
        <ele>25</ele>
        <time>2021-12-30T20:11:50.000Z</time>
      </trkpt>
      <trkpt lat="47.25995" lon="-1.59842">
        <ele>27</ele>
        <time>2021-12-30T20:11:50.000Z</time>
      </trkpt>
      <trkpt lat="47.25972" lon="-1.5984">
        <ele>31</ele>
        <time>2021-12-30T20:11:50.000Z</time>
      </trkpt>
      <trkpt lat="47.2595" lon="-1.59853">
        <ele>34</ele>
        <time>2021-12-30T20:11:50.000Z</time>
      </trkpt>
      <trkpt lat="47.25933" lon="-1.59866">
        <ele>37</ele>
        <time>2021-12-30T20:12:43.000Z</time>
      </trkpt>
      <trkpt lat="47.25924" lon="-1.59852">
        <ele>37</ele>
        <time>2021-12-30T20:11:50.000Z</time>
      </trkpt>
      <trkpt lat="47.25913" lon="-1.5983">
        <ele>36</ele>
        <time>2021-12-30T20:11:50.000Z</time>
      </trkpt>
      <trkpt lat="47.25898" lon="-1.59804">
        <ele>36</ele>
        <time>2021-12-30T20:11:50.000Z</time>
      </trkpt>
      <trkpt lat="47.25886" lon="-1.59775">
        <ele>35</ele>
        <time>2021-12-30T20:11:50.000Z</time>
      </trkpt>
      <trkpt lat="47.25878" lon="-1.59757">
        <ele>34</ele>
        <time>2021-12-30T20:11:50.000Z</time>
      </trkpt>
      <trkpt lat="47.25867" lon="-1.59749">
        <ele>34</ele>
        <time>2021-12-30T20:12:04.000Z</time>
      </trkpt>
      <trkpt lat="47.25846" lon="-1.59749">
        <ele>34</ele>
        <time>2021-12-30T20:11:50.000Z</time>
      </trkpt>
      <trkpt lat="47.25824" lon="-1.59764">
        <ele>34</ele>
        <time>2021-12-30T20:11:50.000Z</time>
      </trkpt>
      <trkpt lat="47.25805" lon="-1.59778">
        <ele>34</ele>
        <time>2021-12-30T20:11:50.000Z</time>
      </trkpt>
      <trkpt lat="47.25785" lon="-1.59795">
        <ele>34</ele>
        <time>2021-12-30T20:11:50.000Z</time>
      </trkpt>
      <trkpt lat="47.25765" lon="-1.59812">
        <ele>34</ele>
        <time>2021-12-30T20:11:50.000Z</time>
      </trkpt>
      <trkpt lat="47.25744" lon="-1.59831">
        <ele>34</ele>
        <time>2021-12-30T20:11:50.000Z</time>
      </trkpt>
      <trkpt lat="47.25724" lon="-1.59847">
        <ele>36</ele>
        <time>2021-12-30T20:11:50.000Z</time>
      </trkpt>
      <trkpt lat="47.25706" lon="-1.59864">
        <ele>37</ele>
        <time>2021-12-30T20:11:50.000Z</time>
      </trkpt>
      <trkpt lat="47.25685" lon="-1.59881">
        <ele>39</ele>
        <time>2021-12-30T20:11:50.000Z</time>
      </trkpt>
      <trkpt lat="47.25664" lon="-1.59897">
        <ele>40</ele>
        <time>2021-12-30T20:11:50.000Z</time>
      </trkpt>
      <trkpt lat="47.25645" lon="-1.59914">
        <ele>41</ele>
        <time>2021-12-30T20:11:50.000Z</time>
      </trkpt>
      <trkpt lat="47.25624" lon="-1.5993">
        <ele>42</ele>
        <time>2021-12-30T20:11:50.000Z</time>
      </trkpt>
      <trkpt lat="47.25603" lon="-1.59948">
        <ele>42</ele>
        <time>2021-12-30T20:11:50.000Z</time>
      </trkpt>
      <trkpt lat="47.2558" lon="-1.59968">
        <ele>42</ele>
        <time>2021-12-30T20:11:50.000Z</time>
      </trkpt>
      <trkpt lat="47.25563" lon="-1.59983">
        <ele>42</ele>
        <time>2021-12-30T20:11:50.000Z</time>
      </trkpt>
      <trkpt lat="47.25544" lon="-1.59999">
        <ele>42</ele>
        <time>2021-12-30T20:11:50.000Z</time>
      </trkpt>
      <trkpt lat="47.25527" lon="-1.60008">
        <ele>42</ele>
        <time>2021-12-30T20:11:50.000Z</time>
      </trkpt>
      <trkpt lat="47.2551" lon="-1.60023">
        <ele>42</ele>
        <time>2021-12-30T20:11:50.000Z</time>
      </trkpt>
      <trkpt lat="47.25495" lon="-1.60038">
        <ele>42</ele>
        <time>2021-12-30T20:11:50.000Z</time>
      </trkpt>
      <trkpt lat="47.25483" lon="-1.60049">
        <ele>42</ele>
        <time>2021-12-30T20:12:06.000Z</time>
      </trkpt>
      <trkpt lat="47.25475" lon="-1.60061">
        <ele>43</ele>
        <time>2021-12-30T20:11:50.000Z</time>
      </trkpt>
      <trkpt lat="47.25458" lon="-1.60074">
        <ele>44</ele>
        <time>2021-12-30T20:11:50.000Z</time>
      </trkpt>
    </trkseg>
  </trk>
</gpx>